Weather in Debrecen

Hungary     47°31′17″N   21°37′20″E
temp.,
°C
wind,
m/s
gust,
m/s
humid.,
%
clouds,
%
prec.,
mm/h
press.,
hPa
HPBL,
m
25 february, thu
thu2501:00+7sse11850 0.0 103622
04:00+6sse22860 0.0 103522
07:00+6s22890 0.0 103522
10:00+10ssw12720 0.0 1035265
13:00+14sw12600 0.0 1034518
16:00+14ssw11670 0.0 103223
19:00+10sse12770 0.0 103222
22:00+9sse12820 0.0 103222
26 february, fri
fri2601:00+8s11820 0.0 103222
04:00+7s12840 0.0 103022
07:00+7s22860 0.0 103022
10:00+12sw22700 0.0 1029277
13:00+15wsw34600 0.0 1027559
16:00+15w24660 0.0 1024152
19:00+11sw22780 0.0 102422
22:00+9w12850 0.0 102422
27 february, sat
sat2701:00+8ne33904 0.0 102439
04:00+6nne8157664 0.0 1023550
07:00+6nne6137882 0.8 10251035
10:00+9nne6106092 0.2 10261025
13:00+10n785653 0.2 10261494
16:00+9nnw366290 0.0 1027965
19:00+5ene387478 0.0 1028232
22:00+4nne5156744 0.0 1029731
28 february, sun
sun2801:00+3n5107141 0.0 1031237
04:00+2n34810 0.0 103081
07:00+2n23820 0.0 103164
10:00+5nne57670 0.0 1032798
13:00+7n46580 0.0 10321241
16:00+6nne35623 0.0 1031895
19:00+3nne397230 0.0 1032334
22:00+3nne5126897 0.0 1033425
1 march, mon
mon101:00+1n4117753 0.0 1034327
04:000nne24790 0.0 1034105
07:00+1n26770 0.0 1034166
10:00+6nne57640 0.0 1034681
13:00+8n46590 0.0 1033820
16:00+8n47630 0.0 1032953
19:00+5n410740 0.0 1034286
22:00+4nne39820 0.0 1035244